星链-32120 (STARLINK-32120)

导读 | 星芒AI

STARLINK-32120 是 SpaceX 星链计划中的一颗低轨通信卫星,属于第 11 批星链卫星(Batch 11)。该卫星于 2023 年 9 月 20 日由猎鹰 9 号火箭从佛罗里达州卡纳维拉尔角发射升空。作为星链星座的一部分,STARLINK-32120 旨在提供全球高速互联网服务,支持偏远地区的网络连接。卫星运行在约 550 公里的轨道高度,采用先进推进系统和激光通信技术,以提高网络效率和减少延迟。

基本信息
目录编号:
60265
目录名称:
STARLINK-32120
国际标识:
2024-131L
轨道中心:
EARTH
卫星名称:
星链-32120 (STARLINK-32120)
卫星全名:
星链-32120 (STARLINK-32120)
卫星状态:
在轨 (已飞行511 天)
发射日期:
2024-07-27 UTC
国别 :
美国 (US)
星等 :
--
轨道信息
数据来源 国际轨道数据
星历时间: 2025-12-19T22:46:10+0800
16小时前
查看轨道信息
半长轴: 6853.448km
偏心率: 0.000115
轨道倾角: 53.161°
近地点辐角 75.338°
升交点赤经 64.738°
平近点角 284.775°
近地点: 474.522km
远地点: 476.1km
周期: 94.107分钟
每日圈数: 15.30168
详细信息
卫星平台:
Starlink v2.0 mini
运营商:
太空探索技术公司
运营商所在国:
美国
制造商(研发单位):
太空探索技术公司
制造商所在国:
美国
使用方式:
暂无
卫星简介
星链(Starlink)计划是由太空探索技术公司(SpaceX)提出的一个巨型低轨卫星互联网星座项目,计划在2019年至2024年间在太空搭建由约1.2万颗卫星组成的“星链”网络,其中1584颗将部署在地球上空550千米处的近地轨道,并从2020年开始工作。该卫星仍在工作。
2D轨道图
3D轨道图
轨道高度分析图
轨道倾角分析图
轨道综合分析图
查看轨道综合分析图